Flag for Canada Weather past 2 weeks in Sidney, British Columbia, Canada

Now
55 °F

Mostly cloudy.


Feels Like: 50 °F
Forecast: 53 / 59 °F
Wind: 24 mph from Southeast

Location: Victoria Int. Airportb. C.

Current Time: Oct 21, 2014 at 11:44:27 PM

Latest Report: Oct 21, 2014 at 11:00 PM


Visibility: 20 mi

Pressure: 29.60 "Hg

Humidity: 82%

Dew point: 50 °F

Location of SidneyLocation

Historic Weather in Sidney — Graph

°F

Sidney temperature yesterday

Maximum temperature yesterday: 61 °F (at 11:00 AM)
Minimum temperature yesterday: 54 °F (at 3:00 AM)
Average temperature yesterday: 56 °F

Past Weeks' High & Low Weather Summary

 TemperatureHumidityPressure
High66 °F (Oct 7, 2:00 PM)100% (Oct 7, 6:00 AM)30.22 "Hg (Oct 7, 6:00 AM)
Low46 °F (Oct 12, 2:00 AM)56% (Oct 11, 3:00 PM)29.49 "Hg (Oct 15, 5:00 AM)
Average55 °F90%29.86 "Hg
* Reported Oct 6 10:00 PM — Oct 21 10:00 PM, Sidney, Weather by CustomWeather, © 2014

Note: Actual official high and low records may vary slightly from our data, if they occured in-between our weather recording intervals... More about our weather records

Advertising

Sidney weather history for previous 24 hours

 ConditionsComfort  
Time TempWeatherWind HumidityBarometerVisibility
10:00 PM
Oct 21
55 °FOvercast.18 mph82%29.64 "Hg20 mi
9:00 PM55 °FLight rain. Mostly cloudy.24 mph82%29.65 "Hg20 mi
8:00 PM55 °FLight rain. Passing clouds.10 mph82%29.70 "Hg20 mi
7:48 PM54 °FLight rain. Passing clouds.9 mph94%29.71 "Hg20 mi
7:00 PM54 °FLight rain. Broken clouds.10 mph94%29.74 "Hg15 mi
6:00 PM54 °FLight rain. Mostly cloudy.14 mph94%29.77 "Hg12 mi
5:00 PM54 °FBroken clouds.12 mph94%29.78 "Hg30 mi
4:00 PM55 °FBroken clouds.12 mph88%29.80 "Hg30 mi
3:00 PM57 °FPartly sunny.7 mph82%29.79 "Hg30 mi
2:51 PM57 °FScattered clouds.10 mph82%29.79 "Hg30 mi
2:00 PM57 °FPartly sunny.13 mph82%29.81 "Hg30 mi
1:00 PM57 °FBroken clouds.13 mph82%29.83 "Hg30 mi
12:00 PM55 °FBroken clouds.12 mph88%29.85 "Hg30 mi
11:00 AM55 °FPartly sunny.14 mph88%29.84 "Hg30 mi
10:00 AM55 °FPassing clouds.13 mph82%29.84 "Hg30 mi
9:00 AM54 °FPartly sunny.5 mph88%29.82 "Hg20 mi
8:00 AM52 °FPassing clouds.5 mph94%29.80 "Hg12 mi
7:00 AM54 °FLight rain. Fog.9 mph94%29.78 "Hg5 mi
6:00 AM54 °FFog.7 mph94%29.78 "Hg5 mi
5:00 AM52 °FFog.7 mph94%29.77 "Hg5 mi
4:00 AM52 °FLight rain. Fog.8 mph100%29.75 "Hg3 mi
3:45 AM54 °FLight rain. Fog.9 mph94%29.76 "Hg5 mi
3:00 AM54 °FFog.7 mph94%29.76 "Hg3 mi
2:00 AM54 °FFog.7 mph94%29.76 "Hg1 mi
1:54 AM54 °FFog.7 mph94%29.76 "Hg1 mi
1:00 AM52 °FPassing clouds.3 mph100%29.75 "Hg12 mi
12:00 AM54 °FPassing clouds.7 mph94%29.74 "Hg30 mi
11:00 PM
Oct 20
54 °FPartly cloudy.8 mph94%29.74 "Hg30 mi
Weather by CustomWeather, © 2014

See weather overviewHow to use our weather pages